Location: Tel Aviv
(32.0670°N, 34.7670°E)
Time: 20:39:00
(UTC+03:00)

Vanguard 2 Rocket - Pass Details

Date: 27 January 2022
Orbit: 553 x 3323 km, 32.9° (Epoch: 24 May)

Event Time Altitude Azimuth Distance (km) Brightness Sun altitude
Exits shadow 03:33:38 64° 278° (W) 3,345 9.2 -39.0°
Maximum altitude 03:38:14 87° 3° (N) 3,242 9.4 -38.0°
Drops below altitude 10° 03:58:44 10° 94° (E) 6,032 11.9 -33.7°
Sets 04:03:00 0° 95° (E) 6,852 12.5 -32.8°
